Simultaneous Nadir Overpasses (SNOs) Predictions

Prediction of SNOs between AQUA and METOP-A Satellite Orbit:

Table of predicted SNOs for the next 14.0 days since TLE Epoch: 3/12/2016
Index Date (AQUA) Time (AQUA) Lat,Lon (AQUA) SZA (AQUA ) Date (METOP-A) Time (METOP-A) Lat,Lon (METOP-A) SZA (METOP-A ) Distance(km) Time Diff (sec)
1 03/13/2016 07:53:58 73.86, 55.72 76.64 03/13/2016 07:53:00 73.84, 55.75 76.64 2.12 58
2 03/13/2016 08:43:24 -73.88,-136.69 103.35 03/13/2016 08:43:41 -73.90,-136.78 103.33 3.45 17
3 03/13/2016 09:33:02 74.42, 29.70 77.23 03/13/2016 09:34:10 74.42, 31.85 77.13 64.18 68
4 03/16/2016 03:28:15 73.85, 122.17 75.52 03/16/2016 03:27:24 73.86, 122.20 75.53 1.40 51
5 03/16/2016 04:17:42 -73.92, -70.35 104.43 03/16/2016 04:18:05 -73.92, -70.33 104.43 0.61 23
6 03/18/2016 23:02:31 73.87,-171.44 74.41 03/18/2016 23:01:47 73.87,-171.37 74.42 2.12 44
7 03/18/2016 23:51:58 -73.93, -3.94 105.53 03/18/2016 23:52:28 -73.94, -3.89 105.53 1.86 30
8 03/21/2016 18:36:47 73.85,-104.98 73.28 03/21/2016 18:36:11 73.88,-104.95 73.31 2.95 36
9 03/21/2016 19:26:14 -73.92, 62.53 106.67 03/21/2016 19:26:53 -73.90, 62.43 106.69 3.56 39
10 03/24/2016 14:11:03 73.87, -38.57 72.18 03/24/2016 14:10:35 73.88, -38.54 72.20 2.10 28
11 03/24/2016 15:00:30 -73.92, 128.95 107.78 03/24/2016 15:01:17 -73.91, 128.85 107.80 3.55 47




NCC Satellite Simultaneous Nadir Overpasses (SNOs) Prediction Service
